N414AR KCNI-KPDK

Flight info

Callsign N414AR
Flight time 0h 13m
Altitude 5000
Route DCT AABEE DCT
Aircraft C414/L-SBDFGRY/S

Departure

Time 2026-05-06 22:36
Airport Cherokee County Regional Airport (KCNI)

Arrival

Time 2026-05-06 22:49
Airport DeKalb Peachtree Airport (KPDK)
Time Latitude Longitude Altitude Speed Heading
2026-05-06 22:18 34.30840 -84.42773 1223 ft 0 kts 304°
2026-05-06 22:29 34.30838 -84.42794 1223 ft 6 kts 232°
2026-05-06 22:29 34.30777 -84.42820 1224 ft 11 kts 177°
2026-05-06 22:30 34.30714 -84.42763 1225 ft 15 kts 130°
2026-05-06 22:30 34.30694 -84.42672 1224 ft 13 kts 40°
2026-05-06 22:30 34.30783 -84.42576 1222 ft 20 kts 41°
2026-05-06 22:30 34.30845 -84.42511 1221 ft 6 kts 41°
2026-05-06 22:31 34.30916 -84.42433 1223 ft 20 kts 41°
2026-05-06 22:31 34.31021 -84.42321 1222 ft 19 kts 42°
2026-05-06 22:31 34.31107 -84.42228 1223 ft 16 kts 41°
2026-05-06 22:31 34.31188 -84.42141 1222 ft 16 kts 41°
2026-05-06 22:32 34.31280 -84.42046 1219 ft 18 kts 41°
2026-05-06 22:32 34.31375 -84.41942 1217 ft 18 kts 42°
2026-05-06 22:32 34.31469 -84.41837 1212 ft 18 kts 43°
2026-05-06 22:32 34.31560 -84.41740 1211 ft 17 kts 43°
2026-05-06 22:33 34.31576 -84.41723 1211 ft 0 kts 39°
2026-05-06 22:33 34.31582 -84.41716 1211 ft 6 kts 40°
2026-05-06 22:33 34.31652 -84.41641 1208 ft 15 kts 40°
2026-05-06 22:34 34.31706 -84.41630 1209 ft 9 kts 309°
2026-05-06 22:34 34.31725 -84.41659 1209 ft 2 kts 304°
2026-05-06 22:34 34.31700 -84.41702 1209 ft 14 kts 220°
2026-05-06 22:34 34.31672 -84.41731 1210 ft 13 kts 221°
2026-05-06 22:35 34.31473 -84.41946 1214 ft 62 kts 223°
2026-05-06 22:35 34.31054 -84.42400 1248 ft 96 kts 222°
2026-05-06 22:35 34.30476 -84.42972 1348 ft 118 kts 225°
2026-05-06 22:35 34.29829 -84.43677 1478 ft 132 kts 231°
2026-05-06 22:36 34.29239 -84.44519 1757 ft 135 kts 226°
2026-05-06 22:36 34.28679 -84.45490 1795 ft 146 kts 255°
2026-05-06 22:36 34.28829 -84.46703 1954 ft 153 kts 300°
2026-05-06 22:36 34.29684 -84.47457 2090 ft 159 kts 338°
2026-05-06 22:37 34.30805 -84.47521 2162 ft 169 kts 11°
2026-05-06 22:37 34.31783 -84.46709 2215 ft 177 kts 53°
2026-05-06 22:37 34.32231 -84.45358 2333 ft 173 kts 90°
2026-05-06 22:37 34.31942 -84.44012 2451 ft 163 kts 131°
2026-05-06 22:38 34.31119 -84.43176 2605 ft 151 kts 166°
2026-05-06 22:38 34.30138 -84.42765 2820 ft 155 kts 158°
2026-05-06 22:38 34.29267 -84.41955 3033 ft 159 kts 149°
2026-05-06 22:38 34.28401 -84.41136 3205 ft 158 kts 152°
2026-05-06 22:39 34.27522 -84.40334 3363 ft 159 kts 152°
2026-05-06 22:39 34.26637 -84.39529 3537 ft 160 kts 153°
2026-05-06 22:39 34.25740 -84.38725 3707 ft 161 kts 152°
2026-05-06 22:39 34.24846 -84.37897 3916 ft 162 kts 152°
2026-05-06 22:40 34.23946 -84.37068 4011 ft 163 kts 152°
2026-05-06 22:40 34.23036 -84.36233 4209 ft 165 kts 152°
2026-05-06 22:40 34.22116 -84.35390 4390 ft 167 kts 152°
2026-05-06 22:40 34.21193 -84.34542 4537 ft 166 kts 152°
2026-05-06 22:41 34.19344 -84.32846 4829 ft 167 kts 152°
2026-05-06 22:41 34.18410 -84.31999 4932 ft 171 kts 152°
2026-05-06 22:41 34.17438 -84.31122 4938 ft 178 kts 153°
2026-05-06 22:42 34.16435 -84.30213 4954 ft 183 kts 152°
2026-05-06 22:42 34.15383 -84.29266 4947 ft 194 kts 153°
2026-05-06 22:42 34.14318 -84.28192 4844 ft 206 kts 140°
2026-05-06 22:42 34.13272 -84.27112 4933 ft 194 kts 154°
2026-05-06 22:43 34.12126 -84.26349 4860 ft 176 kts 196°
2026-05-06 22:43 34.11166 -84.27096 4946 ft 168 kts 209°
2026-05-06 22:43 34.09968 -84.27293 4954 ft 181 kts 183°
2026-05-06 22:43 34.08711 -84.27007 4982 ft 185 kts 174°
2026-05-06 22:44 34.07463 -84.26634 4959 ft 183 kts 174°
2026-05-06 22:44 34.06643 -84.26394 4854 ft 184 kts 173°
2026-05-06 22:44 34.05412 -84.25972 4661 ft 183 kts 171°
2026-05-06 22:44 34.04161 -84.25589 4374 ft 186 kts 175°
2026-05-06 22:45 34.02906 -84.25265 4125 ft 183 kts 174°
2026-05-06 22:45 34.01678 -84.24909 3887 ft 179 kts 174°
2026-05-06 22:45 34.00488 -84.24536 3663 ft 174 kts 174°
2026-05-06 22:45 33.99321 -84.24179 3420 ft 171 kts 173°
2026-05-06 22:46 33.98182 -84.23830 3203 ft 167 kts 173°
2026-05-06 22:46 33.97070 -84.23503 2981 ft 161 kts 174°
2026-05-06 22:46 33.96004 -84.23501 2785 ft 149 kts 203°
2026-05-06 22:46 33.95149 -84.24147 2592 ft 147 kts 217°
2026-05-06 22:47 33.94304 -84.24859 2384 ft 148 kts 218°
2026-05-06 22:47 33.93459 -84.25579 2185 ft 150 kts 215°
2026-05-06 22:47 33.92612 -84.26309 1990 ft 150 kts 218°
2026-05-06 22:47 33.91911 -84.27141 1948 ft 129 kts 231°
2026-05-06 22:48 33.91319 -84.27901 1868 ft 123 kts 221°
2026-05-06 22:48 33.90649 -84.28499 1696 ft 115 kts 212°
2026-05-06 22:48 33.89991 -84.28943 1503 ft 105 kts 208°
2026-05-06 22:48 33.89314 -84.29317 1276 ft 107 kts 199°
2026-05-06 22:49 33.88616 -84.29610 1088 ft 107 kts 201°
2026-05-06 22:49 33.87946 -84.29914 1003 ft 96 kts 198°
2026-05-06 22:49 33.87395 -84.30159 997 ft 67 kts 200°
2026-05-06 22:49 33.87131 -84.30284 1003 ft 16 kts 233°
2026-05-06 22:50 33.87139 -84.30360 1001 ft 11 kts 293°
2026-05-06 22:50 33.87174 -84.30468 996 ft 14 kts 290°
2026-05-06 22:50 33.87216 -84.30506 998 ft 8 kts 27°
2026-05-06 22:50 33.87269 -84.30479 1000 ft 9 kts 14°
2026-05-06 22:51 33.87326 -84.30500 1001 ft 3 kts 306°
2026-05-06 22:51 33.87326 -84.30501 1001 ft 0 kts 308°
2026-05-06 22:52 0.00488 0.00001 53808 ft 0 kts